Time,TemperatureF,DewpointF,PressureIn,WindDirection,WindDirectionDegrees,WindSpeedMPH,WindSpeedGustMPH,Humidity,HourlyPrecipIn,Conditions,Clouds,dailyrainin,SolarRadiationWatts/m^2,SoftwareType,DateUTC
2013-07-10 00:01:00,74.0,73.0,29.83,WSW,247,0.0,1.0,95,0.00,,,0.08,0,weatherlink.com 1.10,2013-07-10 05:01:00,
2013-07-10 00:16:00,73.6,72.0,29.83,WSW,248,0.0,2.0,96,0.00,,,0.00,0,weatherlink.com 1.10,2013-07-10 05:16:00,
2013-07-10 00:31:00,73.6,72.0,29.82,WSW,248,0.0,1.0,96,0.00,,,0.00,0,weatherlink.com 1.10,2013-07-10 05:31:00,
2013-07-10 00:46:00,73.2,72.0,29.81,WSW,247,0.0,1.0,95,0.00,,,0.00,0,weatherlink.com 1.10,2013-07-10 05:46:00,
2013-07-10 01:01:00,72.9,71.0,29.81,WSW,247,0.0,0.0,95,0.00,,,0.00,0,weatherlink.com 1.10,2013-07-10 06:01:00,
2013-07-10 01:16:00,72.6,71.0,29.81,WSW,247,1.0,1.0,96,0.00,,,0.00,0,weatherlink.com 1.10,2013-07-10 06:16:00,
2013-07-10 01:31:00,72.5,71.0,29.82,WSW,247,0.0,1.0,96,0.00,,,0.00,0,weatherlink.com 1.10,2013-07-10 06:31:00,
2013-07-10 01:46:00,72.5,72.0,29.81,WSW,247,0.0,1.0,97,0.00,,,0.00,0,weatherlink.com 1.10,2013-07-10 06:46:00,
2013-07-10 02:16:00,72.4,71.0,29.82,WSW,248,0.0,3.0,95,0.00,,,0.00,0,weatherlink.com 1.10,2013-07-10 07:16:00,
2013-07-10 02:31:00,72.2,70.0,29.81,WSW,248,1.0,1.0,94,0.00,,,0.00,0,weatherlink.com 1.10,2013-07-10 07:31:00,
2013-07-10 02:46:00,72.0,70.0,29.81,WSW,241,2.0,3.0,94,0.00,,,0.00,0,weatherlink.com 1.10,2013-07-10 07:46:00,
2013-07-10 03:01:00,72.0,70.0,29.81,WSW,245,2.0,4.0,93,0.00,,,0.00,0,weatherlink.com 1.10,2013-07-10 08:01:00,
2013-07-10 03:16:00,71.7,70.0,29.81,WSW,246,1.0,4.0,94,0.00,,,0.00,0,weatherlink.com 1.10,2013-07-10 08:16:00,
2013-07-10 03:31:00,71.6,70.0,29.81,WSW,244,2.0,4.0,94,0.00,,,0.00,0,weatherlink.com 1.10,2013-07-10 08:31:00,
2013-07-10 03:46:00,71.3,70.0,29.82,WSW,239,1.0,5.0,94,0.00,,,0.00,0,weatherlink.com 1.10,2013-07-10 08:46:00,
2013-07-10 04:01:00,71.2,69.0,29.82,WSW,242,2.0,5.0,94,0.00,,,0.00,0,weatherlink.com 1.10,2013-07-10 09:01:00,
2013-07-10 04:16:00,71.3,70.0,29.82,WSW,245,4.0,6.0,94,0.00,,,0.00,0,weatherlink.com 1.10,2013-07-10 09:16:00,
2013-07-10 04:31:00,71.3,69.0,29.83,WSW,246,4.0,6.0,93,0.00,,,0.00,0,weatherlink.com 1.10,2013-07-10 09:31:00,
2013-07-10 04:46:00,71.0,69.0,29.83,WSW,246,1.0,5.0,94,0.00,,,0.00,0,weatherlink.com 1.10,2013-07-10 09:46:00,
2013-07-10 05:01:00,70.6,69.0,29.84,WSW,253,4.0,5.0,94,0.00,,,0.00,0,weatherlink.com 1.10,2013-07-10 10:01:00,
2013-07-10 05:16:00,70.4,69.0,29.84,West,266,5.0,7.0,94,0.00,,,0.00,0,weatherlink.com 1.10,2013-07-10 10:16:00,
2013-07-10 05:31:00,70.2,69.0,29.85,WSW,256,2.0,7.0,94,0.00,,,0.00,0,weatherlink.com 1.10,2013-07-10 10:31:00,
2013-07-10 05:46:00,70.3,69.0,29.85,WSW,254,6.0,7.0,94,0.00,,,0.00,12,weatherlink.com 1.10,2013-07-10 10:46:00,
2013-07-10 06:01:00,70.2,69.0,29.86,West,277,4.0,7.0,94,0.00,,,0.00,23,weatherlink.com 1.10,2013-07-10 11:01:00,
2013-07-10 06:16:00,70.5,68.0,29.86,WNW,288,5.0,11.0,93,0.00,,,0.00,39,weatherlink.com 1.10,2013-07-10 11:16:00,
2013-07-10 06:31:00,71.0,69.0,29.86,WNW,297,4.0,7.0,93,0.00,,,0.00,91,weatherlink.com 1.10,2013-07-10 11:31:00,
2013-07-10 06:46:00,71.6,69.0,29.86,NW,314,3.0,11.0,91,0.00,,,0.00,176,weatherlink.com 1.10,2013-07-10 11:46:00,
2013-07-10 07:01:00,71.8,69.0,29.86,WNW,300,5.0,11.0,89,0.00,,,0.00,158,weatherlink.com 1.10,2013-07-10 12:01:00,
2013-07-10 07:16:00,71.8,68.0,29.86,NNW,328,6.0,13.0,88,0.00,,,0.00,206,weatherlink.com 1.10,2013-07-10 12:16:00,
2013-07-10 07:31:00,71.8,68.0,29.86,NNW,327,5.0,14.0,88,0.00,,,0.00,320,weatherlink.com 1.10,2013-07-10 12:31:00,
2013-07-10 07:46:00,72.5,68.0,29.87,NNW,337,8.0,12.0,86,0.00,,,0.00,390,weatherlink.com 1.10,2013-07-10 12:46:00,
2013-07-10 08:01:00,72.9,68.0,29.87,NW,308,3.0,13.0,84,0.00,,,0.00,408,weatherlink.com 1.10,2013-07-10 13:01:00,
2013-07-10 08:16:00,72.6,67.0,29.87,WNW,297,7.0,14.0,83,0.00,,,0.00,459,weatherlink.com 1.10,2013-07-10 13:16:00,
2013-07-10 08:32:00,72.5,66.0,29.88,NNW,331,8.0,18.0,80,0.00,,,0.00,496,weatherlink.com 1.10,2013-07-10 13:32:00,
2013-07-10 08:47:00,72.4,65.0,29.89,NW,310,8.0,14.0,78,0.00,,,0.00,473,weatherlink.com 1.10,2013-07-10 13:47:00,
2013-07-10 09:02:00,71.9,65.0,29.89,NNW,336,6.0,14.0,80,0.00,,,0.00,635,weatherlink.com 1.10,2013-07-10 14:02:00,
2013-07-10 09:17:00,70.3,63.0,29.90,NNW,327,8.0,13.0,77,0.00,,,0.00,113,weatherlink.com 1.10,2013-07-10 14:17:00,
2013-07-10 09:32:00,71.5,64.0,29.91,WNW,301,11.0,15.0,76,0.00,,,0.00,737,weatherlink.com 1.10,2013-07-10 14:32:00,
2013-07-10 09:47:00,72.4,64.0,29.91,NNW,333,8.0,13.0,74,0.00,,,0.00,737,weatherlink.com 1.10,2013-07-10 14:47:00,
2013-07-10 10:02:00,72.9,64.0,29.91,WNW,296,7.0,16.0,73,0.00,,,0.00,670,weatherlink.com 1.10,2013-07-10 15:02:00,
2013-07-10 10:17:00,73.5,64.0,29.91,NNW,340,9.0,13.0,73,0.00,,,0.00,837,weatherlink.com 1.10,2013-07-10 15:17:00,
2013-07-10 10:32:00,73.5,64.0,29.91,WNW,301,6.0,14.0,71,0.00,,,0.00,795,weatherlink.com 1.10,2013-07-10 15:32:00,
2013-07-10 10:47:00,73.0,62.0,29.91,WNW,298,7.0,13.0,69,0.00,,,0.00,817,weatherlink.com 1.10,2013-07-10 15:47:00,
2013-07-10 11:02:00,72.9,63.0,29.91,NW,317,8.0,13.0,71,0.00,,,0.00,295,weatherlink.com 1.10,2013-07-10 16:02:00,
2013-07-10 11:17:00,73.5,63.0,29.91,NW,305,8.0,13.0,70,0.00,,,0.00,874,weatherlink.com 1.10,2013-07-10 16:17:00,
2013-07-10 11:32:00,73.5,63.0,29.91,NNW,344,12.0,14.0,70,0.00,,,0.00,858,weatherlink.com 1.10,2013-07-10 16:32:00,
2013-07-10 11:47:00,74.0,63.0,29.92,WNW,303,6.0,13.0,69,0.00,,,0.00,882,weatherlink.com 1.10,2013-07-10 16:47:00,
2013-07-10 12:02:00,73.2,62.0,29.93,NW,319,3.0,16.0,69,0.00,,,0.00,958,weatherlink.com 1.10,2013-07-10 17:02:00,
2013-07-10 12:17:00,74.1,62.0,29.93,West,278,4.0,15.0,65,0.00,,,0.00,926,weatherlink.com 1.10,2013-07-10 17:17:00,
2013-07-10 12:32:00,74.4,62.0,29.94,NNW,331,7.0,12.0,65,0.00,,,0.00,206,weatherlink.com 1.10,2013-07-10 17:32:00,
2013-07-10 12:47:00,74.7,64.0,29.94,NNW,336,8.0,13.0,69,0.00,,,0.00,1007,weatherlink.com 1.10,2013-07-10 17:47:00,
2013-07-10 13:02:00,73.9,63.0,29.95,WNW,296,4.0,10.0,68,0.00,,,0.00,997,weatherlink.com 1.10,2013-07-10 18:02:00,
2013-07-10 13:17:00,74.0,63.0,29.95,NW,306,6.0,12.0,69,0.00,,,0.00,1060,weatherlink.com 1.10,2013-07-10 18:17:00,
2013-07-10 13:32:00,75.1,62.0,29.95,WNW,286,7.0,10.0,65,0.00,,,0.00,979,weatherlink.com 1.10,2013-07-10 18:32:00,
2013-07-10 13:47:00,75.2,63.0,29.95,NNW,347,5.0,9.0,66,0.00,,,0.00,990,weatherlink.com 1.10,2013-07-10 18:47:00,
2013-07-10 14:02:00,75.9,62.0,29.95,NW,305,7.0,10.0,63,0.00,,,0.00,937,weatherlink.com 1.10,2013-07-10 19:02:00,
2013-07-10 14:17:00,75.7,64.0,29.95,WNW,289,5.0,9.0,67,0.00,,,0.00,990,weatherlink.com 1.10,2013-07-10 19:17:00,
2013-07-10 14:32:00,75.9,63.0,29.95,West,272,8.0,11.0,64,0.00,,,0.00,928,weatherlink.com 1.10,2013-07-10 19:32:00,
2013-07-10 14:47:00,76.8,64.0,29.95,NNW,331,7.0,12.0,64,0.00,,,0.00,875,weatherlink.com 1.10,2013-07-10 19:47:00,
2013-07-10 15:02:00,76.3,62.0,29.95,West,266,6.0,11.0,61,0.00,,,0.00,946,weatherlink.com 1.10,2013-07-10 20:02:00,
2013-07-10 15:17:00,76.6,62.0,29.95,West,277,9.0,9.0,60,0.00,,,0.00,295,weatherlink.com 1.10,2013-07-10 20:17:00,
2013-07-10 15:32:00,75.9,63.0,29.95,NW,313,5.0,12.0,64,0.00,,,0.00,800,weatherlink.com 1.10,2013-07-10 20:32:00,
2013-07-10 15:47:00,75.7,62.0,29.95,NW,318,7.0,8.0,63,0.00,,,0.00,856,weatherlink.com 1.10,2013-07-10 20:47:00,
2013-07-10 16:02:00,76.0,60.0,29.95,NW,305,7.0,12.0,58,0.00,,,0.00,243,weatherlink.com 1.10,2013-07-10 21:02:00,
2013-07-10 16:17:00,77.1,62.0,29.94,NW,322,10.0,13.0,59,0.00,,,0.00,838,weatherlink.com 1.10,2013-07-10 21:17:00,
2013-07-10 16:32:00,76.2,61.0,29.94,WNW,290,4.0,10.0,60,0.00,,,0.00,158,weatherlink.com 1.10,2013-07-10 21:32:00,
2013-07-10 16:47:00,76.1,61.0,29.93,WNW,289,4.0,8.0,60,0.00,,,0.00,179,weatherlink.com 1.10,2013-07-10 21:47:00,
2013-07-10 17:03:00,76.1,61.0,29.94,NW,325,3.0,9.0,60,0.00,,,0.00,137,weatherlink.com 1.10,2013-07-10 22:03:00,
2013-07-10 17:17:00,74.8,61.0,29.94,NW,304,3.0,8.0,63,0.00,,,0.00,118,weatherlink.com 1.10,2013-07-10 22:17:00,
2013-07-10 17:32:00,76.5,62.0,29.93,NW,319,4.0,7.0,61,0.00,,,0.00,577,weatherlink.com 1.10,2013-07-10 22:32:00,
2013-07-10 17:47:00,76.9,61.0,29.93,NNW,340,5.0,9.0,59,0.00,,,0.00,438,weatherlink.com 1.10,2013-07-10 22:47:00,
2013-07-10 18:02:00,76.6,62.0,29.93,WNW,296,7.0,10.0,61,0.00,,,0.00,376,weatherlink.com 1.10,2013-07-10 23:02:00,
2013-07-10 18:17:00,75.8,62.0,29.94,NW,306,2.0,8.0,63,0.00,,,0.00,338,weatherlink.com 1.10,2013-07-10 23:17:00,
2013-07-10 18:32:00,76.0,61.0,29.94,WNW,291,5.0,10.0,60,0.00,,,0.00,292,weatherlink.com 1.10,2013-07-10 23:32:00,
2013-07-10 18:48:00,75.5,61.0,29.94,NW,313,5.0,8.0,60,0.00,,,0.00,248,weatherlink.com 1.10,2013-07-10 23:48:00,
2013-07-10 19:03:00,75.0,61.0,29.94,WNW,294,3.0,8.0,63,0.00,,,0.00,197,weatherlink.com 1.10,2013-07-11 00:03:00,
2013-07-10 19:18:00,74.6,62.0,29.94,WNW,302,2.0,4.0,64,0.00,,,0.00,149,weatherlink.com 1.10,2013-07-11 00:18:00,
2013-07-10 19:33:00,73.9,61.0,29.95,NW,313,1.0,5.0,65,0.00,,,0.00,104,weatherlink.com 1.10,2013-07-11 00:33:00,
2013-07-10 19:48:00,73.1,62.0,29.95,NW,309,0.0,3.0,68,0.00,,,0.00,67,weatherlink.com 1.10,2013-07-11 00:48:00,
2013-07-10 20:03:00,72.2,62.0,29.95,NW,309,0.0,2.0,70,0.00,,,0.00,35,weatherlink.com 1.10,2013-07-11 01:03:00,
2013-07-10 20:18:00,70.8,61.0,29.95,WNW,296,1.0,2.0,71,0.00,,,0.00,16,weatherlink.com 1.10,2013-07-11 01:18:00,
2013-07-10 20:33:00,69.4,60.0,29.96,WNW,296,0.0,1.0,73,0.00,,,0.00,5,weatherlink.com 1.10,2013-07-11 01:33:00,
2013-07-10 20:48:00,68.2,60.0,29.96,WNW,296,0.0,1.0,76,0.00,,,0.00,0,weatherlink.com 1.10,2013-07-11 01:48:00,
2013-07-10 21:03:00,67.7,60.0,29.97,WNW,296,0.0,1.0,75,0.00,,,0.00,0,weatherlink.com 1.10,2013-07-11 02:03:00,
2013-07-10 21:18:00,67.3,60.0,29.98,WNW,296,1.0,1.0,77,0.00,,,0.00,0,weatherlink.com 1.10,2013-07-11 02:18:00,
2013-07-10 21:33:00,66.7,60.0,29.98,WNW,296,0.0,1.0,79,0.00,,,0.00,0,weatherlink.com 1.10,2013-07-11 02:33:00,
2013-07-10 21:48:00,66.2,59.0,29.99,WNW,296,0.0,0.0,78,0.00,,,0.00,0,weatherlink.com 1.10,2013-07-11 02:48:00,
2013-07-10 22:03:00,65.7,59.0,29.99,WNW,296,0.0,1.0,79,0.00,,,0.00,0,weatherlink.com 1.10,2013-07-11 03:03:00,
2013-07-10 22:18:00,65.2,59.0,30.00,WNW,296,0.0,1.0,80,0.00,,,0.00,0,weatherlink.com 1.10,2013-07-11 03:18:00,
2013-07-10 22:33:00,64.5,59.0,30.00,NW,305,0.0,2.0,81,0.00,,,0.00,0,weatherlink.com 1.10,2013-07-11 03:33:00,
2013-07-10 22:48:00,64.2,59.0,30.00,NW,305,0.0,1.0,83,0.00,,,0.00,0,weatherlink.com 1.10,2013-07-11 03:48:00,
2013-07-10 23:03:00,64.1,59.0,30.00,NW,305,0.0,1.0,83,0.00,,,0.00,0,weatherlink.com 1.10,2013-07-11 04:03:00,
2013-07-10 23:18:00,63.6,59.0,30.01,NW,305,0.0,0.0,84,0.00,,,0.00,0,weatherlink.com 1.10,2013-07-11 04:18:00,
2013-07-10 23:33:00,63.5,59.0,30.01,NW,305,0.0,0.0,84,0.00,,,0.00,0,weatherlink.com 1.10,2013-07-11 04:33:00,
2013-07-10 23:48:00,63.0,58.0,30.02,NW,305,0.0,0.0,84,0.00,,,0.00,0,weatherlink.com 1.10,2013-07-11 04:48:00,